| time (UTC) | temp F | wind direction | speed MPH | gust MPH | rain 1hr in | rain 24hr in | rain mn in | humidity % | barometer mb |
| 20260507075828 | 63 | 103 | 1.0 | 3.0 | 0.00 | 0.00 | 0.00 | 80 | 1010.8 |
| 20260507075400 | 62 | 53 | 1.0 | 4.0 | 0.00 | 0.00 | 0.00 | 80 | 1010.6 |
| 20260507075352 | 62 | 121 | 1.0 | 4.0 | 0.00 | 0.00 | 0.00 | 81 | 1010.7 |
| 20260507074331 | 63 | 84 | 1.0 | 4.0 | 0.00 | 0.00 | 0.00 | 80 | 1010.7 |
| 20260507073830 | 62 | 117 | 1.0 | 4.0 | 0.00 | 0.00 | 0.00 | 82 | 1010.6 |
| 20260507073329 | 62 | 136 | 0.0 | 2.0 | 0.00 | 0.00 | 0.00 | 81 | 1010.6 |
| 20260507073119 | 62 | 111 | 0.0 | 2.0 | 0.00 | 0.00 | 0.00 | 81 | 1010.6 |
| 20260507072333 | 61 | 126 | 1.0 | 4.0 | 0.00 | 0.00 | 0.00 | 81 | 1010.5 |
| 20260507071830 | 62 | 74 | 1.0 | 4.0 | 0.00 | 0.00 | 0.00 | 85 | 1010.5 |
| 20260507071331 | 61 | 58 | 1.0 | 4.0 | 0.00 | 0.00 | 0.00 | 84 | 1010.2 |
| 20260507070829 | 61 | 57 | 1.0 | 3.0 | 0.00 | 0.00 | 0.00 | 83 | 1010.2 |
| 20260507070325 | 60 | 77 | 1.0 | 3.0 | 0.00 | 0.00 | 0.00 | 85 | 1010.2 |
| 20260507065822 | 60 | 82 | 1.0 | 3.0 | 0.00 | 0.00 | 0.00 | 86 | 1010.1 |
| 20260507065321 | 60 | 54 | 0.0 | 2.0 | 0.00 | 0.00 | 0.00 | 87 | 1010.0 |
| 20260507064819 | 60 | 87 | 0.0 | 2.0 | 0.00 | 0.00 | 0.00 | 86 | 1009.9 |
| 20260507064319 | 60 | 300 | 0.0 | 2.0 | 0.00 | 0.00 | 0.00 | 88 | 1009.9 |
| 20260507064049 | 59 | 279 | 0.0 | 2.0 | 0.00 | 0.00 | 0.00 | 87 | 1009.9 |
| 20260507063303 | 59 | 317 | 0.0 | 2.0 | 0.00 | 0.00 | 0.00 | 88 | 1009.9 |
| 20260507063046 | 59 | 304 | 0.0 | 2.0 | 0.00 | 0.00 | 0.00 | 88 | 1009.9 |
| 20260507062258 | 59 | 93 | 0.0 | 2.0 | 0.00 | 0.00 | 0.00 | 88 | 1009.9 |
| 20260507061801 | 59 | 93 | 1.0 | 4.0 | 0.00 | 0.00 | 0.00 | 88 | 1009.9 |
| 20260507061244 | 58 | 116 | 1.0 | 4.0 | 0.00 | 0.00 | 0.00 | 89 | 1009.8 |
| 20260507061022 | 58 | 0 | 0.0 | 2.0 | 0.00 | 0.00 | 0.00 | 90 | 1009.8 |
| 20260507060238 | 58 | 337 | 0.0 | 2.0 | 0.00 | 0.00 | 0.00 | 91 | 1009.6 |
| 20260507060016 | 58 | 29 | 0.0 | 2.0 | 0.00 | 0.00 | 0.00 | 91 | 1009.5 |
| 20260507055232 | 58 | 123 | 0.0 | 2.0 | 0.00 | 0.00 | 0.00 | 92 | 1009.5 |
| 20260507054729 | 58 | 101 | 0.0 | 2.0 | 0.00 | 0.00 | 0.00 | 91 | 1009.5 |
| 20260507054229 | 57 | 101 | 0.0 | 2.0 | 0.00 | 0.00 | 0.00 | 91 | 1009.4 |
| 20260507053730 | 57 | 164 | 0.0 | 2.0 | 0.00 | 0.00 | 0.00 | 92 | 1009.3 |
| 20260507053230 | 57 | 247 | 0.0 | 2.0 | 0.00 | 0.00 | 0.00 | 92 | 1009.4 |
| 20260507052732 | 57 | 286 | 0.0 | 2.0 | 0.00 | 0.00 | 0.00 | 93 | 1009.2 |
| 20260507052223 | 57 | 312 | 0.0 | 2.0 | 0.00 | 0.00 | 0.00 | 93 | 1009.2 |
| 20260507051720 | 57 | 106 | 0.0 | 2.0 | 0.00 | 0.00 | 0.00 | 93 | 1009.1 |
| 20260507051215 | 56 | 65 | 0.0 | 2.0 | 0.00 | 0.00 | 0.00 | 93 | 1009.1 |
| 20260507050711 | 56 | 65 | 0.0 | 2.0 | 0.00 | 0.00 | 0.00 | 94 | 1009.0 |
| 20260507050203 | 56 | 65 | 0.0 | 2.0 | 0.00 | 0.00 | 0.00 | 94 | 1009.0 |
| 20260507045700 | 56 | 65 | 1.0 | 3.0 | 0.00 | 0.00 | 0.00 | 94 | 1009.0 |
| 20260507045156 | 56 | 65 | 1.0 | 3.0 | 0.00 | 0.00 | 0.00 | 93 | 1009.0 |
| 20260507044655 | 56 | 79 | 0.0 | 2.0 | 0.00 | 0.00 | 0.00 | 93 | 1008.9 |
| 20260507044413 | 56 | 126 | 1.0 | 2.0 | 0.00 | 0.00 | 0.00 | 93 | 1008.7 |
| 20260507043626 | 56 | 78 | 1.0 | 2.0 | 0.00 | 0.00 | 0.00 | 94 | 1008.7 |
| 20260507043117 | 56 | 117 | 1.0 | 2.0 | 0.00 | 0.00 | 0.00 | 94 | 1008.7 |
| 20260507042612 | 56 | 66 | 1.0 | 2.0 | 0.00 | 0.00 | 0.00 | 94 | 1008.6 |
| 20260507042110 | 55 | 120 | 0.0 | 2.0 | 0.00 | 0.00 | 0.00 | 94 | 1008.6 |
| 20260507041606 | 55 | 150 | 0.0 | 2.0 | 0.00 | 0.00 | 0.00 | 94 | 1008.6 |
| 20260507041346 | 55 | 150 | 0.0 | 2.0 | 0.00 | 0.00 | 0.00 | 93 | 1008.5 |
| 20260507040604 | 55 | 205 | 0.0 | 2.0 | 0.00 | 0.00 | 0.00 | 93 | 1008.4 |
| 20260507040106 | 55 | 229 | 0.0 | 2.0 | 0.00 | 0.00 | 0.00 | 93 | 1008.4 |
| 20260507035557 | 55 | 294 | 0.0 | 2.0 | 0.00 | 0.00 | 0.00 | 93 | 1008.3 |
| 20260507035031 | 55 | 294 | 0.0 | 1.0 | 0.00 | 0.00 | 0.00 | 92 | 1008.4 |
| 20260507034516 | 55 | 276 | 1.0 | 2.0 | 0.00 | 0.00 | 0.00 | 92 | 1008.4 |
| 20260507034018 | 56 | 275 | 1.0 | 2.0 | 0.00 | 0.00 | 0.00 | 93 | 1008.4 |
| 20260507033514 | 55 | 257 | 1.0 | 2.0 | 0.00 | 0.00 | 0.00 | 93 | 1008.3 |
| 20260507033003 | 55 | 307 | 0.0 | 2.0 | 0.00 | 0.00 | 0.00 | 93 | 1008.3 |
| 20260507032456 | 56 | 265 | 0.0 | 2.0 | 0.00 | 0.00 | 0.00 | 92 | 1008.2 |
| 20260507031947 | 56 | 265 | 0.0 | 2.0 | 0.00 | 0.00 | 0.00 | 92 | 1008.2 |
| 20260507031435 | 56 | 265 | 0.0 | 2.0 | 0.00 | 0.00 | 0.00 | 92 | 1008.2 |
| 20260507030931 | 56 | 262 | 1.0 | 2.0 | 0.00 | 0.00 | 0.00 | 92 | 1008.2 |
| 20260507030430 | 56 | 311 | 1.0 | 2.0 | 0.00 | 0.00 | 0.00 | 92 | 1008.2 |
| 20260507025933 | 56 | 61 | 0.0 | 2.0 | 0.00 | 0.00 | 0.00 | 91 | 1008.3 |
| 20260507025429 | 56 | 61 | 0.0 | 2.0 | 0.00 | 0.00 | 0.00 | 91 | 1008.3 |
| 20260507024933 | 57 | 61 | 0.0 | 2.0 | 0.00 | 0.00 | 0.00 | 90 | 1008.3 |
| 20260507024431 | 57 | 61 | 0.0 | 2.0 | 0.00 | 0.00 | 0.00 | 89 | 1008.3 |
| 20260507023929 | 57 | 61 | 0.0 | 2.0 | 0.00 | 0.00 | 0.00 | 89 | 1008.2 |
| 20260507023429 | 58 | 61 | 1.0 | 2.0 | 0.00 | 0.00 | 0.00 | 88 | 1008.2 |
| 20260507022928 | 58 | 47 | 1.0 | 2.0 | 0.00 | 0.00 | 0.00 | 88 | 1008.1 |
| 20260507022427 | 58 | 299 | 1.0 | 2.0 | 0.00 | 0.00 | 0.00 | 88 | 1008.2 |
| 20260507021921 | 58 | 279 | 1.0 | 2.0 | 0.00 | 0.00 | 0.00 | 88 | 1008.3 |
| 20260507021410 | 58 | 331 | 0.0 | 2.0 | 0.00 | 0.00 | 0.00 | 88 | 1008.2 |
| 20260507020904 | 58 | 330 | 0.0 | 2.0 | 0.00 | 0.00 | 0.00 | 88 | 1008.3 |
| 20260507020401 | 58 | 58 | 1.0 | 2.0 | 0.00 | 0.00 | 0.00 | 87 | 1008.3 |
| 20260507015903 | 59 | 55 | 1.0 | 2.0 | 0.00 | 0.00 | 0.00 | 86 | 1008.3 |
| 20260507015407 | 59 | 52 | 1.0 | 2.0 | 0.00 | 0.00 | 0.00 | 85 | 1008.3 |
| 20260507014848 | 59 | 92 | 1.0 | 3.0 | 0.00 | 0.00 | 0.00 | 85 | 1008.4 |
| 20260507014337 | 59 | 278 | 2.0 | 4.0 | 0.00 | 0.00 | 0.00 | 84 | 1008.4 |
| 20260507013835 | 59 | 283 | 3.0 | 6.0 | 0.00 | 0.00 | 0.00 | 84 | 1008.3 |
| 20260507013329 | 60 | 231 | 5.0 | 9.0 | 0.00 | 0.00 | 0.00 | 83 | 1008.2 |
| 20260507012830 | 60 | 246 | 5.0 | 10.0 | 0.00 | 0.00 | 0.00 | 82 | 1008.2 |
| 20260507012331 | 60 | 188 | 4.0 | 10.0 | 0.00 | 0.00 | 0.00 | 83 | 1008.2 |
| 20260507011829 | 60 | 206 | 4.0 | 10.0 | 0.00 | 0.00 | 0.00 | 84 | 1008.2 |
| 20260507011604 | 60 | 209 | 3.0 | 7.0 | 0.00 | 0.00 | 0.00 | 84 | 1008.1 |
| 20260507010828 | 60 | 209 | 3.0 | 8.0 | 0.00 | 0.00 | 0.00 | 83 | 1008.2 |
| 20260507010331 | 60 | 210 | 3.0 | 8.0 | 0.00 | 0.00 | 0.00 | 83 | 1008.3 |
| 20260507005830 | 60 | 222 | 4.0 | 8.0 | 0.00 | 0.00 | 0.00 | 83 | 1008.2 |
| 20260507005329 | 60 | 201 | 5.0 | 10.0 | 0.00 | 0.00 | 0.00 | 83 | 1008.4 |
| 20260507004830 | 60 | 209 | 5.0 | 10.0 | 0.00 | 0.00 | 0.00 | 82 | 1008.3 |
| 20260507004332 | 60 | 219 | 6.0 | 14.0 | 0.00 | 0.00 | 0.00 | 82 | 1008.2 |
| 20260507003829 | 60 | 238 | 6.0 | 14.0 | 0.00 | 0.00 | 0.00 | 81 | 1008.2 |
| 20260507003330 | 60 | 265 | 5.0 | 11.0 | 0.00 | 0.00 | 0.00 | 80 | 1008.2 |
| 20260507002829 | 60 | 261 | 4.0 | 9.0 | 0.00 | 0.00 | 0.00 | 81 | 1008.4 |
| 20260507002333 | 60 | 261 | 4.0 | 9.0 | 0.00 | 0.00 | 0.00 | 82 | 1008.3 |
| 20260507001830 | 60 | 210 | 4.0 | 10.0 | 0.00 | 0.00 | 0.00 | 82 | 1008.3 |
| 20260507001321 | 60 | 207 | 3.0 | 9.0 | 0.00 | 0.00 | 0.00 | 83 | 1008.2 |
| 20260507000843 | 60 | 181 | 2.0 | 9.0 | 0.00 | 0.00 | 0.00 | 84 | 1008.2 |
| 20260507000837 | 60 | 187 | 2.0 | 9.0 | 0.00 | 0.00 | 0.00 | 83 | 1008.2 |
| 20260506235811 | 60 | 208 | 2.0 | 8.0 | 0.00 | 0.00 | 0.00 | 84 | 1008.3 |
| 20260506235312 | 60 | 217 | 3.0 | 8.0 | 0.00 | 0.00 | 0.00 | 84 | 1008.3 |
| 20260506234809 | 60 | 198 | 3.0 | 6.0 | 0.00 | 0.00 | 0.00 | 84 | 1008.1 |
| 20260506234306 | 60 | 208 | 3.0 | 6.0 | 0.00 | 0.00 | 0.00 | 84 | 1008.1 |
| 20260506233806 | 60 | 192 | 2.0 | 6.0 | 0.00 | 0.00 | 0.00 | 84 | 1008.2 |
| 20260506233539 | 60 | 228 | 2.0 | 6.0 | 0.00 | 0.00 | 0.00 | 84 | 1008.2 |
| 20260506232806 | 60 | 144 | 2.0 | 6.0 | 0.00 | 0.00 | 0.00 | 84 | 1008.1 |
| 20260506232534 | 60 | 199 | 2.0 | 6.0 | 0.00 | 0.00 | 0.00 | 85 | 1008.1 |
| 20260506231807 | 60 | 230 | 2.0 | 5.0 | 0.00 | 0.00 | 0.00 | 85 | 1008.2 |
| 20260506231301 | 59 | 227 | 1.0 | 4.0 | 0.00 | 0.00 | 0.00 | 85 | 1008.2 |
| 20260506230800 | 60 | 273 | 0.0 | 2.0 | 0.00 | 0.00 | 0.00 | 85 | 1008.3 |
| 20260506230301 | 60 | 329 | 0.0 | 2.0 | 0.00 | 0.00 | 0.00 | 85 | 1008.5 |
| 20260506225803 | 60 | 248 | 1.0 | 6.0 | 0.00 | 0.00 | 0.00 | 85 | 1008.4 |
| 20260506225306 | 59 | 240 | 1.0 | 6.0 | 0.00 | 0.00 | 0.00 | 86 | 1008.3 |
| 20260506224802 | 59 | 267 | 0.0 | 3.0 | 0.00 | 0.00 | 0.00 | 87 | 1008.2 |
| 20260506224300 | 59 | 340 | 0.0 | 2.0 | 0.00 | 0.00 | 0.00 | 87 | 1008.3 |
| 20260506223755 | 59 | 355 | 1.0 | 2.0 | 0.00 | 0.00 | 0.00 | 87 | 1008.3 |
| 20260506223253 | 59 | 317 | 0.0 | 2.0 | 0.00 | 0.00 | 0.00 | 86 | 1008.3 |
| 20260506222758 | 59 | 231 | 0.0 | 2.0 | 0.00 | 0.00 | 0.00 | 86 | 1008.1 |
| 20260506222250 | 59 | 189 | 0.0 | 2.0 | 0.00 | 0.00 | 0.00 | 86 | 1008.1 |
| 20260506221741 | 59 | 153 | 1.0 | 2.0 | 0.00 | 0.00 | 0.00 | 86 | 1008.1 |
| 20260506221237 | 59 | 128 | 1.0 | 2.0 | 0.00 | 0.00 | 0.00 | 86 | 1008.1 |
| 20260506220735 | 60 | 121 | 1.0 | 2.0 | 0.00 | 0.00 | 0.00 | 85 | 1008.1 |
| 20260506220511 | 60 | 90 | 2.0 | 4.0 | 0.00 | 0.00 | 0.00 | 84 | 1008.1 |
| 20260506215729 | 60 | 105 | 1.0 | 4.0 | 0.00 | 0.00 | 0.00 | 84 | 1008.3 |
| 20260506215231 | 60 | 124 | 2.0 | 8.0 | 0.00 | 0.00 | 0.00 | 83 | 1008.2 |
| 20260506214729 | 60 | 184 | 2.0 | 8.0 | 0.00 | 0.00 | 0.00 | 83 | 1008.1 |
| 20260506214232 | 60 | 257 | 2.0 | 6.0 | 0.00 | 0.00 | 0.00 | 84 | 1008.1 |
| 20260506213730 | 60 | 233 | 3.0 | 6.0 | 0.00 | 0.00 | 0.00 | 85 | 1008.1 |
| 20260506213231 | 59 | 217 | 3.0 | 8.0 | 0.00 | 0.00 | 0.00 | 86 | 1007.9 |
| 20260506212732 | 59 | 268 | 2.0 | 8.0 | 0.00 | 0.00 | 0.00 | 86 | 1007.9 |
| 20260506212229 | 59 | 213 | 2.0 | 5.0 | 0.00 | 0.00 | 0.00 | 86 | 1007.8 |
| 20260506211731 | 60 | 207 | 3.0 | 5.0 | 0.00 | 0.00 | 0.00 | 85 | 1007.7 |
| 20260506211228 | 60 | 229 | 3.0 | 5.0 | 0.00 | 0.00 | 0.00 | 85 | 1007.6 |
| 20260506210731 | 60 | 215 | 2.0 | 4.0 | 0.00 | 0.00 | 0.00 | 85 | 1007.7 |
| 20260506210230 | 60 | 227 | 2.0 | 4.0 | 0.00 | 0.00 | 0.00 | 85 | 1007.8 |
| 20260506205729 | 60 | 212 | 2.0 | 4.0 | 0.00 | 0.00 | 0.00 | 84 | 1007.8 |
| 20260506205231 | 60 | 252 | 2.0 | 5.0 | 0.00 | 0.00 | 0.00 | 83 | 1007.7 |
| 20260506205011 | 61 | 246 | 3.0 | 7.0 | 0.00 | 0.00 | 0.00 | 83 | 1007.7 |
| 20260506204232 | 61 | 223 | 4.0 | 8.0 | 0.00 | 0.00 | 0.00 | 83 | 1007.7 |
| 20260506203729 | 61 | 226 | 4.0 | 9.0 | 0.00 | 0.00 | 0.00 | 83 | 1007.7 |
| 20260506203229 | 61 | 211 | 5.0 | 10.0 | 0.00 | 0.00 | 0.00 | 83 | 1007.8 |
| 20260506202730 | 61 | 238 | 5.0 | 10.0 | 0.00 | 0.00 | 0.00 | 83 | 1007.8 |
| 20260506202230 | 61 | 216 | 4.0 | 9.0 | 0.00 | 0.00 | 0.00 | 83 | 1007.7 |
| 20260506201730 | 61 | 199 | 4.0 | 8.0 | 0.00 | 0.00 | 0.00 | 82 | 1007.8 |
| 20260506201232 | 61 | 205 | 4.0 | 9.0 | 0.00 | 0.00 | 0.00 | 82 | 1007.7 |
| 20260506200730 | 61 | 240 | 4.0 | 9.0 | 0.00 | 0.00 | 0.00 | 82 | 1007.8 |
| 20260506200227 | 61 | 275 | 4.0 | 9.0 | 0.00 | 0.00 | 0.00 | 83 | 1007.7 |
| 20260506195725 | 61 | 211 | 3.0 | 9.0 | 0.00 | 0.00 | 0.00 | 83 | 1007.7 |
| 20260506195225 | 61 | 221 | 3.0 | 5.0 | 0.00 | 0.00 | 0.00 | 84 | 1007.8 |
| 20260506194723 | 61 | 207 | 3.0 | 6.0 | 0.00 | 0.00 | 0.00 | 83 | 1007.8 |
| 20260506194223 | 61 | 215 | 2.0 | 7.0 | 0.00 | 0.00 | 0.00 | 83 | 1007.7 |
| 20260506193727 | 61 | 213 | 3.0 | 7.0 | 0.00 | 0.00 | 0.00 | 83 | 1007.7 |
| 20260506193223 | 61 | 219 | 3.0 | 10.0 | 0.00 | 0.00 | 0.00 | 82 | 1007.7 |
| 20260506192724 | 61 | 205 | 3.0 | 10.0 | 0.00 | 0.00 | 0.00 | 82 | 1007.7 |
| 20260506192219 | 61 | 196 | 4.0 | 8.0 | 0.00 | 0.00 | 0.00 | 82 | 1007.6 |
| 20260506191721 | 62 | 231 | 4.0 | 8.0 | 0.00 | 0.00 | 0.00 | 82 | 1007.5 |
| 20260506191213 | 62 | 232 | 3.0 | 7.0 | 0.00 | 0.00 | 0.00 | 81 | 1007.4 |
| 20260506190707 | 62 | 229 | 3.0 | 10.0 | 0.00 | 0.00 | 0.00 | 81 | 1007.4 |
| 20260506190204 | 62 | 153 | 5.0 | 10.0 | 0.00 | 0.00 | 0.00 | 81 | 1007.4 |
| 20260506185707 | 62 | 186 | 5.0 | 10.0 | 0.00 | 0.00 | 0.00 | 81 | 1007.3 |
| 20260506185202 | 62 | 238 | 4.0 | 12.0 | 0.00 | 0.00 | 0.00 | 80 | 1007.2 |
| 20260506184701 | 62 | 205 | 4.0 | 12.0 | 0.00 | 0.00 | 0.00 | 80 | 1007.2 |
| 20260506184203 | 62 | 162 | 4.0 | 12.0 | 0.00 | 0.00 | 0.00 | 80 | 1007.1 |
| 20260506183701 | 62 | 180 | 4.0 | 11.0 | 0.00 | 0.00 | 0.00 | 80 | 1006.9 |
| 20260506183207 | 62 | 217 | 3.0 | 11.0 | 0.00 | 0.00 | 0.00 | 80 | 1006.8 |
| 20260506182704 | 62 | 207 | 3.0 | 8.0 | 0.00 | 0.00 | 0.00 | 80 | 1006.7 |
| 20260506182205 | 62 | 235 | 4.0 | 8.0 | 0.00 | 0.00 | 0.00 | 80 | 1006.7 |
| 20260506181702 | 63 | 184 | 5.0 | 12.0 | 0.00 | 0.00 | 0.00 | 80 | 1006.6 |
| 20260506181443 | 63 | 194 | 5.0 | 12.0 | 0.00 | 0.00 | 0.00 | 80 | 1006.6 |
| 20260506180702 | 63 | 209 | 5.0 | 14.0 | 0.00 | 0.00 | 0.00 | 80 | 1006.6 |
| 20260506180204 | 63 | 199 | 4.0 | 14.0 | 0.00 | 0.00 | 0.00 | 80 | 1006.6 |
| 20260506175704 | 63 | 207 | 3.0 | 9.0 | 0.00 | 0.00 | 0.00 | 80 | 1006.7 |
| 20260506175442 | 63 | 227 | 4.0 | 10.0 | 0.00 | 0.00 | 0.00 | 80 | 1006.7 |
| 20260506174705 | 63 | 208 | 6.0 | 13.0 | 0.00 | 0.00 | 0.00 | 80 | 1006.6 |
| 20260506174156 | 63 | 211 | 6.0 | 13.0 | 0.00 | 0.00 | 0.00 | 80 | 1006.7 |
| 20260506173656 | 63 | 252 | 4.0 | 10.0 | 0.00 | 0.00 | 0.00 | 80 | 1006.7 |
| 20260506173155 | 63 | 200 | 4.0 | 10.0 | 0.00 | 0.00 | 0.00 | 80 | 1006.6 |
| 20260506172655 | 64 | 176 | 3.0 | 10.0 | 0.00 | 0.00 | 0.00 | 80 | 1006.5 |
| 20260506172152 | 64 | 225 | 4.0 | 11.0 | 0.00 | 0.00 | 0.00 | 80 | 1006.6 |
| 20260506171647 | 64 | 211 | 5.0 | 11.0 | 0.00 | 0.00 | 0.00 | 79 | 1006.6 |
| 20260506171142 | 64 | 201 | 5.0 | 13.0 | 0.00 | 0.00 | 0.00 | 79 | 1006.6 |
| 20260506170639 | 64 | 181 | 6.0 | 17.0 | 0.00 | 0.00 | 0.00 | 79 | 1006.6 |
| 20260506170138 | 64 | 201 | 6.0 | 17.0 | 0.00 | 0.00 | 0.00 | 78 | 1006.5 |
| 20260506165640 | 64 | 217 | 6.0 | 15.0 | 0.00 | 0.00 | 0.00 | 78 | 1006.7 |
| 20260506165136 | 64 | 196 | 6.0 | 15.0 | 0.00 | 0.00 | 0.00 | 78 | 1006.6 |
| 20260506164639 | 65 | 229 | 7.0 | 20.0 | 0.00 | 0.00 | 0.00 | 77 | 1006.7 |
| 20260506164131 | 65 | 215 | 7.0 | 20.0 | 0.00 | 0.00 | 0.00 | 77 | 1006.7 |
| 20260506163906 | 65 | 191 | 6.0 | 20.0 | 0.00 | 0.00 | 0.00 | 77 | 1006.7 |
| 20260506163129 | 65 | 215 | 7.0 | 20.0 | 0.00 | 0.00 | 0.00 | 77 | 1006.8 |
| 20260506162630 | 65 | 215 | 9.0 | 20.0 | 0.00 | 0.00 | 0.00 | 77 | 1006.9 |
| 20260506162129 | 65 | 168 | 8.0 | 21.0 | 0.00 | 0.00 | 0.00 | 76 | 1006.9 |
| 20260506161629 | 65 | 175 | 7.0 | 21.0 | 0.00 | 0.00 | 0.00 | 76 | 1007.0 |
| 20260506161130 | 66 | 198 | 7.0 | 20.0 | 0.00 | 0.00 | 0.00 | 75 | 1007.1 |
| 20260506160630 | 66 | 186 | 8.0 | 20.0 | 0.00 | 0.00 | 0.00 | 75 | 1007.1 |
| 20260506160409 | 66 | 195 | 6.0 | 16.0 | 0.00 | 0.00 | 0.00 | 74 | 1007.2 |
| 20260506155619 | 66 | 199 | 5.0 | 14.0 | 0.00 | 0.00 | 0.00 | 74 | 1007.2 |
| 20260506155119 | 67 | 205 | 7.0 | 14.0 | 0.00 | 0.00 | 0.00 | 74 | 1007.1 |
| 20260506154639 | 67 | 217 | 7.0 | 16.0 | 0.00 | 0.00 | 0.00 | 72 | 1007.2 |
| 20260506154630 | 67 | 207 | 7.0 | 16.0 | 0.00 | 0.00 | 0.00 | 73 | 1007.1 |
| 20260506153608 | 67 | 207 | 8.0 | 16.0 | 0.00 | 0.00 | 0.00 | 73 | 1007.3 |
| 20260506153344 | 67 | 202 | 8.0 | 16.0 | 0.00 | 0.00 | 0.00 | 73 | 1007.4 |
| 20260506152609 | 67 | 209 | 9.0 | 21.0 | 0.00 | 0.00 | 0.00 | 73 | 1007.3 |
| 20260506152104 | 67 | 167 | 10.0 | 21.0 | 0.00 | 0.00 | 0.00 | 73 | 1007.2 |
| 20260506151604 | 67 | 200 | 9.0 | 21.0 | 0.00 | 0.00 | 0.00 | 73 | 1007.3 |
| 20260506151343 | 67 | 224 | 7.0 | 20.0 | 0.00 | 0.00 | 0.00 | 71 | 1007.3 |
| 20260506150603 | 67 | 141 | 7.0 | 20.0 | 0.00 | 0.00 | 0.00 | 72 | 1007.3 |
| 20260506145603 | 68 | 207 | 7.0 | 20.0 | 0.00 | 0.00 | 0.00 | 71 | 1007.3 |
| 20260506145105 | 68 | 165 | 7.0 | 15.0 | 0.00 | 0.00 | 0.00 | 71 | 1007.3 |
| 20260506144603 | 68 | 144 | 7.0 | 16.0 | 0.00 | 0.00 | 0.00 | 71 | 1007.3 |
| 20260506144103 | 68 | 263 | 7.0 | 19.0 | 0.00 | 0.00 | 0.00 | 70 | 1007.3 |
| 20260506143603 | 68 | 219 | 8.0 | 19.0 | 0.00 | 0.00 | 0.00 | 69 | 1007.2 |
| 20260506143102 | 69 | 188 | 8.0 | 20.0 | 0.00 | 0.00 | 0.00 | 69 | 1007.4 |
| 20260506142602 | 70 | 169 | 9.0 | 20.0 | 0.00 | 0.00 | 0.00 | 67 | 1007.5 |
| 20260506142101 | 70 | 220 | 7.0 | 21.0 | 0.00 | 0.00 | 0.00 | 67 | 1007.6 |
| 20260506141603 | 71 | 119 | 7.0 | 21.0 | 0.00 | 0.00 | 0.00 | 65 | 1007.6 |
| 20260506141101 | 72 | 164 | 8.0 | 23.0 | 0.00 | 0.00 | 0.00 | 64 | 1007.6 |
| 20260506140602 | 72 | 215 | 9.0 | 23.0 | 0.00 | 0.00 | 0.00 | 62 | 1007.6 |
| 20260506140343 | 73 | 144 | 7.0 | 20.0 | 0.00 | 0.00 | 0.00 | 65 | 1007.7 |
| 20260506135847 | 72 | 213 | 7.0 | 19.0 | 0.00 | 0.00 | 0.00 | 64 | 1007.6 |
| 20260506135100 | 72 | 174 | 8.0 | 19.0 | 0.00 | 0.00 | 0.00 | 63 | 1007.6 |
| 20260506134846 | 73 | 173 | 7.0 | 21.0 | 0.00 | 0.00 | 0.00 | 62 | 1007.6 |
| 20260506134101 | 73 | 93 | 7.0 | 21.0 | 0.00 | 0.00 | 0.00 | 62 | 1007.7 |
| 20260506133602 | 72 | 185 | 7.0 | 17.0 | 0.00 | 0.00 | 0.00 | 64 | 1007.6 |
| 20260506133101 | 71 | 198 | 8.0 | 18.0 | 0.00 | 0.00 | 0.00 | 65 | 1007.5 |
| 20260506132604 | 70 | 235 | 8.0 | 18.0 | 0.00 | 0.00 | 0.00 | 65 | 1007.5 |
| 20260506132058 | 71 | 178 | 8.0 | 21.0 | 0.00 | 0.00 | 0.00 | 64 | 1007.7 |
| 20260506131559 | 71 | 130 | 8.0 | 21.0 | 0.00 | 0.00 | 0.00 | 63 | 1007.8 |
| 20260506131056 | 71 | 213 | 7.0 | 19.0 | 0.00 | 0.00 | 0.00 | 63 | 1007.7 |
| 20260506130843 | 71 | 216 | 7.0 | 19.0 | 0.00 | 0.00 | 0.00 | 62 | 1007.8 |
| 20260506130056 | 73 | 192 | 7.0 | 19.0 | 0.00 | 0.00 | 0.00 | 61 | 1007.9 |
| 20260506125552 | 74 | 156 | 8.0 | 21.0 | 0.00 | 0.00 | 0.00 | 58 | 1008.1 |
| 20260506125050 | 74 | 269 | 9.0 | 21.0 | 0.00 | 0.00 | 0.00 | 59 | 1008.1 |
| 20260506124546 | 75 | 163 | 7.0 | 18.0 | 0.00 | 0.00 | 0.00 | 58 | 1007.9 |
| 20260506124338 | 75 | 233 | 7.0 | 20.0 | 0.00 | 0.00 | 0.00 | 58 | 1007.9 |
| 20260506123544 | 75 | 135 | 7.0 | 20.0 | 0.00 | 0.00 | 0.00 | 58 | 1007.8 |
| 20260506123034 | 76 | 173 | 7.0 | 18.0 | 0.00 | 0.00 | 0.00 | 56 | 1008.3 |
| 20260506122817 | 75 | 232 | 7.0 | 20.0 | 0.00 | 0.00 | 0.00 | 58 | 1008.3 |
| 20260506122030 | 76 | 195 | 6.0 | 20.0 | 0.00 | 0.00 | 0.00 | 57 | 1008.3 |
| 20260506121533 | 76 | 208 | 5.0 | 17.0 | 0.00 | 0.00 | 0.00 | 56 | 1008.3 |
| 20260506121031 | 75 | 210 | 5.0 | 15.0 | 0.00 | 0.00 | 0.00 | 59 | 1008.3 |
| 20260506120530 | 74 | 247 | 6.0 | 15.0 | 0.00 | 0.00 | 0.00 | 60 | 1008.2 |
| 20260506120031 | 74 | 284 | 7.0 | 18.0 | 0.00 | 0.00 | 0.00 | 58 | 1008.2 |
| 20260506115538 | 74 | 161 | 6.0 | 18.0 | 0.00 | 0.00 | 0.00 | 58 | 1008.3 |
| 20260506115028 | 74 | 114 | 6.0 | 14.0 | 0.00 | 0.00 | 0.00 | 58 | 1008.2 |
| 20260506114517 | 75 | 157 | 5.0 | 15.0 | 0.00 | 0.00 | 0.00 | 56 | 1008.4 |
| 20260506114016 | 75 | 167 | 6.0 | 15.0 | 0.00 | 0.00 | 0.00 | 57 | 1008.4 |
| 20260506113514 | 74 | 191 | 6.0 | 17.0 | 0.00 | 0.00 | 0.00 | 58 | 1008.5 |
| 20260506113011 | 75 | 203 | 4.0 | 17.0 | 0.00 | 0.00 | 0.00 | 57 | 1008.5 |
| 20260506112511 | 75 | 182 | 4.0 | 13.0 | 0.00 | 0.00 | 0.00 | 59 | 1008.7 |
| 20260506112009 | 74 | 123 | 4.0 | 13.0 | 0.00 | 0.00 | 0.00 | 60 | 1008.6 |
| 20260506111511 | 72 | 203 | 3.0 | 13.0 | 0.00 | 0.00 | 0.00 | 61 | 1008.6 |
| 20260506111011 | 72 | 198 | 3.0 | 9.0 | 0.00 | 0.00 | 0.00 | 62 | 1008.6 |
| 20260506110747 | 73 | 163 | 4.0 | 13.0 | 0.00 | 0.00 | 0.00 | 61 | 1008.7 |
| 20260506110007 | 73 | 169 | 5.0 | 13.0 | 0.00 | 0.00 | 0.00 | 60 | 1008.9 |
| 20260506105745 | 74 | 234 | 4.0 | 13.0 | 0.00 | 0.00 | 0.00 | 60 | 1009.0 |
| 20260506105005 | 72 | 196 | 4.0 | 15.0 | 0.00 | 0.00 | 0.00 | 63 | 1008.9 |
| 20260506104502 | 70 | 123 | 4.0 | 15.0 | 0.00 | 0.00 | 0.00 | 64 | 1008.8 |
| 20260506104236 | 70 | 174 | 4.0 | 13.0 | 0.00 | 0.00 | 0.00 | 64 | 1008.8 |
| 20260506103505 | 70 | 211 | 4.0 | 13.0 | 0.00 | 0.00 | 0.00 | 65 | 1008.7 |
| 20260506103003 | 70 | 265 | 5.0 | 14.0 | 0.00 | 0.00 | 0.00 | 65 | 1008.8 |
| 20260506102746 | 69 | 202 | 6.0 | 21.0 | 0.00 | 0.00 | 0.00 | 65 | 1008.8 |
| 20260506102001 | 69 | 202 | 6.0 | 21.0 | 0.00 | 0.00 | 0.00 | 65 | 1008.8 |
| 20260506101503 | 69 | 240 | 6.0 | 17.0 | 0.00 | 0.00 | 0.00 | 64 | 1008.8 |
| 20260506101002 | 69 | 229 | 6.0 | 17.0 | 0.00 | 0.00 | 0.00 | 63 | 1008.9 |
| 20260506100501 | 69 | 227 | 7.0 | 17.0 | 0.00 | 0.00 | 0.00 | 63 | 1008.8 |
| 20260506095953 | 70 | 193 | 7.0 | 19.0 | 0.00 | 0.00 | 0.00 | 61 | 1008.9 |
| 20260506095453 | 71 | 134 | 7.0 | 19.0 | 0.00 | 0.00 | 0.00 | 60 | 1008.9 |
| 20260506094949 | 72 | 181 | 6.0 | 15.0 | 0.00 | 0.00 | 0.00 | 59 | 1009.0 |
| 20260506094449 | 73 | 238 | 5.0 | 15.0 | 0.00 | 0.00 | 0.00 | 57 | 1008.9 |
| 20260506093941 | 74 | 221 | 4.0 | 15.0 | 0.00 | 0.00 | 0.00 | 53 | 1009.0 |
| 20260506093715 | 76 | 146 | 4.0 | 12.0 | 0.00 | 0.00 | 0.00 | 54 | 1009.2 |
| 20260506093217 | 75 | 165 | 5.0 | 17.0 | 0.00 | 0.00 | 0.00 | 55 | 1008.9 |
| 20260506092434 | 74 | 219 | 5.0 | 17.0 | 0.00 | 0.00 | 0.00 | 54 | 1008.9 |
| 20260506091934 | 74 | 234 | 5.0 | 12.0 | 0.00 | 0.00 | 0.00 | 54 | 1008.7 |
| 20260506091433 | 75 | 237 | 4.0 | 14.0 | 0.00 | 0.00 | 0.00 | 53 | 1008.9 |
| 20260506090931 | 75 | 169 | 4.0 | 14.0 | 0.00 | 0.00 | 0.00 | 54 | 1008.9 |
| 20260506090431 | 76 | 189 | 4.0 | 12.0 | 0.00 | 0.00 | 0.00 | 53 | 1009.0 |
| 20260506085922 | 74 | 205 | 4.0 | 12.0 | 0.00 | 0.00 | 0.00 | 55 | 1008.9 |
| 20260506085409 | 74 | 281 | 3.0 | 12.0 | 0.00 | 0.00 | 0.00 | 54 | 1009.0 |
| 20260506084902 | 73 | 191 | 2.0 | 8.0 | 0.00 | 0.00 | 0.00 | 54 | 1008.9 |
| 20260506084400 | 74 | 202 | 2.0 | 7.0 | 0.00 | 0.00 | 0.00 | 59 | 1009.0 |
| 20260506084140 | 73 | 161 | 3.0 | 8.0 | 0.00 | 0.00 | 0.00 | 59 | 1009.0 |
| 20260506083402 | 72 | 229 | 3.0 | 11.0 | 0.00 | 0.00 | 0.00 | 59 | 1009.1 |
| 20260506082902 | 72 | 120 | 3.0 | 11.0 | 0.00 | 0.00 | 0.00 | 61 | 1009.0 |
| 20260506082403 | 71 | 144 | 3.0 | 8.0 | 0.00 | 0.00 | 0.00 | 62 | 1008.9 |
| 20260506082218 | 71 | 213 | 3.0 | 8.0 | 0.00 | 0.00 | 0.00 | 63 | 1009.0 |
| 20260506081402 | 71 | 144 | 1.0 | 8.0 | 0.00 | 0.00 | 0.00 | 62 | 1008.9 |
| 20260506080902 | 70 | 128 | 1.0 | 6.0 | 0.00 | 0.00 | 0.00 | 64 | 1008.8 |
| 20260506080403 | 70 | 126 | 3.0 | 7.0 | 0.00 | 0.00 | 0.00 | 64 | 1008.9 |